Location: ???? ?????
(30.0052°N, 31.2891°E)
Time: 22:32:02
(UTC+00:00)

SEDSat Delta rocket - Pass Details

Date: 26 May 2022
Orbit: 532 x 997 km, 31.4° (Epoch: 04 July)

Event Time Altitude Azimuth Distance (km) Brightness Sun altitude
Exits shadow 01:47:37 15° 262° (W) 2,402 5.5 -13.7°
Maximum altitude 01:53:25 86° 351° (N) 995 4.1 -12.7°
Drops below altitude 10° 02:00:03 10° 80° (E) 2,676 7.5 -11.5°
Sets 02:02:37 0° 81° (E) 3,576 8.3 -11.0°
